When you browse on this site, cookies collect data to enhance your experience and personalize the content and advertising you see.
Visit our Privacy Policy to learn more. By continuing to use the site, you agree to this use of cookies and data.
  • In Hungary
  • List of Countries
  • For 7 days
  • Water Temperature
  • Weather Map
  • News
  • Weather Widgets
  • user-avatar
    Login

    Hourly Weather Nikiforkovo

    Today, 21 January, Tuesday

    Time Temperature Precipitation Wind Pressure Humidity
    00:00 -1°C° 0 mm 5 mps 747 mmHg 86%
    01:00 -1°C° 0 mm 5 mps 746 mmHg 86%
    02:00 -1°C° 0 mm 5 mps 745 mmHg 86%
    03:00 -1°C° 0.4 mm 6 mps 744 mmHg 87%
    04:00 -1°C° 0.4 mm 6 mps 743 mmHg 88%
    05:00 -1°C° 0.4 mm 6 mps 742 mmHg 89%
    06:00 +1°C° 0.1 mm 6 mps 741 mmHg 88%
    07:00 +1°C° 0.1 mm 6 mps 741 mmHg 88%
    08:00 +2°C° 0.1 mm 6 mps 740 mmHg 88%
    09:00 +2°C° 0 mm 6 mps 740 mmHg 87%
    10:00 +3°C° 0 mm 6 mps 739 mmHg 87%
    11:00 +3°C° 0 mm 6 mps 739 mmHg 86%
    12:00 +3°C° 0.1 mm 6 mps 738 mmHg 87%
    13:00 +3°C° 0.1 mm 5 mps 737 mmHg 87%
    14:00 +3°C° 0.1 mm 5 mps 737 mmHg 88%
    15:00 +3°C° 0.9 mm 5 mps 736 mmHg 90%
    16:00 +3°C° 0.9 mm 5 mps 735 mmHg 91%
    17:00 +3°C° 0.9 mm 4 mps 734 mmHg 93%
    18:00 +2°C° 0.2 mm 5 mps 734 mmHg 87%
    19:00 +1°C° 0.2 mm 6 mps 735 mmHg 80%
    20:00 -1°C° 0.2 mm 6 mps 735 mmHg 74%
    21:00 -1°C° 0 mm 6 mps 735 mmHg 74%
    22:00 -2°C° 0 mm 6 mps 735 mmHg 74%
    23:00 -3°C° 0 mm 6 mps 736 mmHg 73%

    Tomorrow, 22 January, Wednesday

    Time Temperature Precipitation Wind Pressure Humidity
    00:00 -3°C° 0 mm 6 mps 736 mmHg 74%
    01:00 -3°C° 0 mm 6 mps 736 mmHg 74%
    02:00 -3°C° 0 mm 6 mps 735 mmHg 74%
    03:00 -3°C° 0 mm 6 mps 735 mmHg 77%
    04:00 -3°C° 0 mm 6 mps 734 mmHg 79%
    05:00 -4°C° 0 mm 6 mps 733 mmHg 82%
    06:00 -4°C° 0.1 mm 6 mps 732 mmHg 82%
    07:00 -4°C° 0.1 mm 5 mps 732 mmHg 82%
    08:00 -4°C° 0.1 mm 5 mps 731 mmHg 82%
    09:00 -2°C° 0.4 mm 5 mps 731 mmHg 80%
    10:00 -2°C° 0.4 mm 5 mps 731 mmHg 79%
    11:00 -3°C° 0.4 mm 6 mps 731 mmHg 78%
    12:00 -3°C° 0.1 mm 6 mps 731 mmHg 74%
    13:00 -2°C° 0.1 mm 5 mps 731 mmHg 71%
    14:00 -4°C° 0.1 mm 5 mps 731 mmHg 67%
    15:00 -4°C° 0 mm 5 mps 732 mmHg 71%
    16:00 -4°C° 0 mm 5 mps 732 mmHg 75%
    17:00 -5°C° 0 mm 5 mps 732 mmHg 79%
    18:00 -5°C° 0 mm 5 mps 733 mmHg 78%
    19:00 -5°C° 0 mm 5 mps 733 mmHg 77%
    20:00 -5°C° 0 mm 5 mps 734 mmHg 76%
    21:00 -6°C° 0.1 mm 5 mps 734 mmHg 73%
    22:00 -6°C° 0.1 mm 6 mps 735 mmHg 71%
    23:00 -6°C° 0.1 mm 6 mps 735 mmHg 68%

    Day after tomorrow, 23 January, Thursday

    Time Temperature Precipitation Wind Pressure Humidity
    00:00 -8°C° 0 mm 6 mps 736 mmHg 67%
    01:00 -8°C° 0 mm 6 mps 737 mmHg 66%
    02:00 -9°C° 0 mm 6 mps 738 mmHg 65%
    03:00 -9°C° 0 mm 6 mps 738 mmHg 65%
    04:00 -9°C° 0 mm 6 mps 739 mmHg 64%
    05:00 -9°C° 0 mm 6 mps 739 mmHg 63%
    06:00 -9°C° 0 mm 6 mps 739 mmHg 61%
    07:00 -9°C° 0 mm 6 mps 740 mmHg 58%
    08:00 -9°C° 0 mm 7 mps 740 mmHg 56%
    09:00 -8°C° 0.1 mm 6 mps 740 mmHg 57%
    10:00 -8°C° 0.1 mm 6 mps 741 mmHg 57%
    11:00 -8°C° 0.1 mm 6 mps 741 mmHg 58%
    12:00 -8°C° 0 mm 6 mps 742 mmHg 56%
    13:00 -8°C° 0 mm 6 mps 742 mmHg 55%
    14:00 -8°C° 0 mm 6 mps 743 mmHg 53%
    15:00 -7°C° 0 mm 5 mps 743 mmHg 55%
    16:00 -8°C° 0 mm 5 mps 744 mmHg 57%
    17:00 -8°C° 0 mm 4 mps 744 mmHg 60%
    18:00 -8°C° 0 mm 4 mps 744 mmHg 60%
    19:00 -8°C° 0 mm 3 mps 745 mmHg 60%
    20:00 -8°C° 0 mm 3 mps 745 mmHg 61%
    21:00 -8°C° 0 mm 3 mps 745 mmHg 60%
    22:00 -8°C° 0 mm 3 mps 745 mmHg 58%
    23:00 -6°C° 0 mm 2 mps 745 mmHg 57%

    24 January, Friday

    Time Temperature Precipitation Wind Pressure Humidity
    00:00 -7°C° 0 mm 3 mps 744 mmHg 62%
    01:00 -6°C° 0 mm 3 mps 744 mmHg 66%
    02:00 -6°C° 0 mm 3 mps 743 mmHg 71%
    03:00 -5°C° 0.1 mm 4 mps 742 mmHg 78%
    04:00 -5°C° 0.1 mm 4 mps 741 mmHg 85%
    05:00 -5°C° 0.1 mm 5 mps 741 mmHg 91%
    06:00 -5°C° 0.1 mm 5 mps 740 mmHg 90%
    07:00 -5°C° 0.1 mm 5 mps 739 mmHg 88%
    08:00 -4°C° 0.1 mm 5 mps 739 mmHg 87%
    09:00 -3°C° 0 mm 4 mps 739 mmHg 88%
    10:00 -2°C° 0 mm 4 mps 738 mmHg 90%
    11:00 -1°C° 0 mm 4 mps 738 mmHg 91%
    12:00 0°C° 0 mm 4 mps 738 mmHg 91%
    13:00 0°C° 0 mm 4 mps 738 mmHg 90%
    14:00 +1°C° 0 mm 4 mps 738 mmHg 89%
    15:00 +1°C° 0 mm 4 mps 738 mmHg 89%
    16:00 0°C° 0 mm 4 mps 738 mmHg 88%
    17:00 0°C° 0 mm 5 mps 739 mmHg 87%
    18:00 0°C° 0 mm 4 mps 739 mmHg 88%
    19:00 0°C° 0 mm 3 mps 739 mmHg 89%
    20:00 0°C° 0 mm 3 mps 739 mmHg 90%
    21:00 -1°C° 0 mm 2 mps 739 mmHg 91%
    22:00 -1°C° 0 mm 2 mps 739 mmHg 93%
    23:00 -1°C° 0 mm 2 mps 739 mmHg 95%

    25 January, Saturday

    Time Temperature Precipitation Wind Pressure Humidity
    00:00 -1°C° 0.2 mm 2 mps 739 mmHg 96%
    01:00 +1°C° 0.2 mm 1 mps 739 mmHg 97%
    02:00 +2°C° 0.2 mm 1 mps 738 mmHg 98%
    03:00 +1°C° 0.5 mm 2 mps 738 mmHg 98%
    04:00 +2°C° 0.5 mm 2 mps 738 mmHg 97%
    05:00 +1°C° 0.5 mm 3 mps 738 mmHg 97%
    06:00 +1°C° 0.3 mm 3 mps 738 mmHg 97%
    07:00 +1°C° 0.3 mm 3 mps 737 mmHg 96%
    08:00 +2°C° 0.3 mm 3 mps 737 mmHg 95%
    09:00 +2°C° 0.3 mm 3 mps 738 mmHg 95%
    10:00 +2°C° 0.3 mm 3 mps 738 mmHg 96%
    11:00 +2°C° 0.3 mm 3 mps 738 mmHg 96%
    12:00 +2°C° 0.1 mm 3 mps 739 mmHg 95%
    13:00 +2°C° 0.1 mm 3 mps 739 mmHg 93%
    14:00 +2°C° 0.1 mm 3 mps 739 mmHg 91%
    15:00 +1°C° 0 mm 3 mps 740 mmHg 91%
    16:00 0°C° 0 mm 3 mps 740 mmHg 92%
    17:00 +1°C° 0 mm 2 mps 740 mmHg 92%
    18:00 -1°C° 0 mm 2 mps 741 mmHg 92%
    19:00 -1°C° 0 mm 2 mps 741 mmHg 93%
    20:00 -2°C° 0 mm 2 mps 741 mmHg 93%
    21:00 -2°C° 0 mm 2 mps 742 mmHg 94%
    22:00 -2°C° 0 mm 2 mps 742 mmHg 94%
    23:00 -2°C° 0 mm 2 mps 742 mmHg 95%

    26 January, Sunday

    Time Temperature Precipitation Wind Pressure Humidity
    00:00 -2°C° 0 mm 2 mps 742 mmHg 95%
    01:00 -2°C° 0 mm 2 mps 743 mmHg 95%
    02:00 -2°C° 0 mm 2 mps 743 mmHg 95%
    03:00 -2°C° 0 mm 2 mps 743 mmHg 95%
    04:00 -2°C° 0 mm 2 mps 743 mmHg 96%
    05:00 -2°C° 0 mm 2 mps 743 mmHg 96%
    06:00 -1°C° 0 mm 2 mps 743 mmHg 95%
    07:00 -1°C° 0 mm 2 mps 743 mmHg 95%
    08:00 +1°C° 0 mm 2 mps 743 mmHg 94%
    09:00 +1°C° 0 mm 2 mps 743 mmHg 94%
    10:00 +1°C° 0 mm 3 mps 743 mmHg 94%
    11:00 +1°C° 0 mm 3 mps 743 mmHg 94%
    12:00 +1°C° 0 mm 3 mps 743 mmHg 94%
    13:00 +1°C° 0 mm 3 mps 742 mmHg 93%
    14:00 +1°C° 0 mm 3 mps 742 mmHg 93%
    15:00 +1°C° 0 mm 3 mps 742 mmHg 91%
    16:00 0°C° 0 mm 3 mps 742 mmHg 90%
    17:00 0°C° 0 mm 3 mps 742 mmHg 88%
    18:00 -1°C° 0 mm 4 mps 741 mmHg 87%
    19:00 -1°C° 0 mm 4 mps 741 mmHg 87%
    20:00 -1°C° 0 mm 4 mps 741 mmHg 86%
    21:00 -1°C° 0 mm 4 mps 740 mmHg 89%
    22:00 -1°C° 0 mm 4 mps 740 mmHg 93%
    23:00 -1°C° 0 mm 4 mps 739 mmHg 96%
    Show more